This demonstration page uses our WeatherBlox Daily Observations layout. Learn more.

Left ArrowRight Arrow

Hourly Observations for August 9, 2019

Temp ( °F °C ) Dew Point ( °F °C ) Humidity (%) Winds ( mph kmh ) Pressure ( in mb ) Visibility ( mi km ) Precip ( " mm )
12:15 am 00:15 Clear 68 19.9 68 19.9 100 100 WSW 5 7 29.89 1012 10 16 0.00 0.00
12:35 am 00:35 Clear 67 19.7 67 19.7 100 100 W 5 7 29.89 1012 10 16 0.00 0.00
12:55 am 00:55 Clear 67 19.6 67 19.6 100 100 Calm 29.90 1012 10 16 0.00 0.00
1:15 am 01:15 Clear 67 19.6 67 19.6 100 100 NW 3 6 29.90 1012 10 16 0.00 0.00
1:35 am 01:35 Clear 67 19.6 67 19.6 100 100 NW 3 6 29.89 1012 10 16 0.00 0.00
1:55 am 01:55 Clear 67 19.2 67 19.2 100 100 Calm 29.90 1012 10 16 0.00 0.00
2:15 am 02:15 Clear 66 18.7 66 18.7 100 100 Calm 29.90 1013 10 16 0.00 0.00
2:35 am 02:35 Clear 65 18.6 65 18.6 100 100 Calm 29.90 1013 10 16 0.00 0.00
2:55 am 02:55 Clear 65 18.1 65 18.1 100 100 Calm 29.90 1013 10 16 0.00 0.00
3:15 am 03:15 Mostly Cloudy 65 18.4 65 18.4 100 100 Calm 29.89 1012 10 16 0.00 0.00
3:35 am 03:35 Mostly Cloudy 65 18.5 65 18.5 100 100 Calm 29.90 1013 10 16 0.00 0.00
3:55 am 03:55 Cloudy 66 18.8 66 18.8 100 100 Calm 29.90 1013 10 16 0.00 0.00
4:15 am 04:15 Mostly Cloudy 65 18.3 65 18.3 100 100 Calm 29.90 1013 10 16 0.00 0.00
4:35 am 04:35 Partly Cloudy 65 18.1 65 18.1 100 100 N 6 9 29.90 1013 10 16 0.00 0.00
4:55 am 04:55 Clear 64 17.7 64 17.7 100 100 NNE 5 7 29.91 1013 10 16 0.00 0.00
5:10 am 05:10 Clear 63 17.2 63 17.2 100 100 Calm 29.92 1013 10 16 0.00 0.00
5:35 am 05:35 Clear 62 16.7 62 16.7 100 100 Calm 29.93 1013 10 16 0.00 0.00
5:55 am 05:55 Clear 61 16.2 61 16.2 100 100 Calm 29.93 1014 10 16 0.00 0.00
6:15 am 06:15 Clear 61 16 61 16 100 100 Calm 29.94 1014 10 16 0.00 0.00
6:35 am 06:35 Clear 60 15.5 60 15.5 100 100 Calm 29.94 1014 10 16 0.00 0.00
6:55 am 06:55 Sunny 60 15.5 60 15.5 100 100 Calm 29.95 1014 10 16 0.00 0.00
7:15 am 07:15 Sunny 60 15.5 60 15.5 100 100 Calm 29.95 1014 10 16 0.00 0.00
7:35 am 07:35 Sunny 60 15.8 60 15.8 100 100 Calm 29.96 1015 10 16 0.00 0.00
7:55 am 07:55 Sunny 62 16.4 62 16.4 100 100 Calm 29.96 1015 10 16 0.00 0.00
8:15 am 08:15 Sunny 64 17.5 64 17.5 100 100 Calm 29.95 1014 10 16 0.00 0.00
8:35 am 08:35 Sunny 65 18.2 64 17.6 96 96 Calm 29.96 1015 10 16 0.00 0.00
8:55 am 08:55 Sunny 67 19.2 63 17.3 89 89 Calm 29.97 1015 10 16 0.00 0.00
9:15 am 09:15 Sunny 68 20 63 17.4 85 85 Calm 29.97 1015 10 16 0.00 0.00
9:35 am 09:35 Sunny 70 20.9 62 16.7 77 77 Calm 29.96 1015 10 16 0.00 0.00
9:55 am 09:55 Sunny 71 21.6 61 16.1 71 71 E 3 6 29.96 1015 10 16 0.00 0.00
10:15 am 10:15 Sunny 71 21.9 59 14.9 65 65 E 5 7 29.96 1015 10 16 0.00 0.00
10:35 am 10:35 Sunny 73 22.5 58 14.5 61 61 NE 3 6 29.96 1014 10 16 0.00 0.00
10:55 am 10:55 Sunny 73 22.7 58 14.3 59 59 Calm 29.96 1014 10 16 0.00 0.00
11:15 am 11:15 Sunny 74 23.2 58 14.7 59 59 NNW 5 7 29.97 1015 10 16 0.00 0.00
11:35 am 11:35 Sunny 74 23.3 58 14.3 57 57 Calm 29.97 1015 10 16 0.00 0.00
11:55 am 11:55 Sunny 74 23.3 57 14.1 56 56 WNW 3 6 29.97 1015 10 16 0.00 0.00
12:15 pm 12:15 Sunny 75 23.7 57 14 55 55 Calm 29.96 1015 10 16 0.00 0.00
12:35 pm 12:35 Sunny 76 24.2 59 15.2 57 57 NNW 3 6 29.95 1014 10 16 0.00 0.00
12:55 pm 12:55 Sunny 76 24.4 59 14.9 56 56 Calm 29.95 1014 10 16 0.00 0.00
1:15 pm 13:15 Sunny 76 24.6 59 14.9 55 55 N 5 7 29.95 1014 10 16 0.00 0.00
1:35 pm 13:35 Sunny 76 24.4 58 14.5 54 54 Calm 29.94 1014 10 16 0.00 0.00
1:55 pm 13:55 Sunny 77 24.8 58 14.7 54 54 NW 6 9 29.94 1014 10 16 0.00 0.00
2:15 pm 14:15 Sunny 77 24.8 59 14.8 54 54 N 6 9 29.94 1014 10 16 0.00 0.00
2:35 pm 14:35 Sunny 78 25.3 60 15.5 55 55 N 6 9 29.93 1014 10 16 0.00 0.00
2:55 pm 14:55 Sunny 78 25.4 59 15.2 53 53 NNE 7 11 29.93 1014 10 16 0.00 0.00
3:15 pm 15:15 Sunny 79 26 59 15.2 51 51 WNW 6 9 29.93 1013 10 16 0.00 0.00
3:35 pm 15:35 Sunny 78 25.7 61 15.9 55 55 N 7 11 29.93 1013 10 16 0.00 0.00
3:55 pm 15:55 Sunny 79 26 59 15.1 51 51 NW 6 9 29.92 1013 10 16 0.00 0.00
4:15 pm 16:15 Sunny 79 25.9 60 15.3 52 52 N 8 13 29.92 1013 10 16 0.00 0.00
4:35 pm 16:35 Sunny 79 25.9 59 15 51 51 Calm 29.92 1013 10 16 0.00 0.00
4:55 pm 16:55 Sunny 78 25.6 58 14.3 50 50 NNE 3 6 29.91 1013 10 16 0.00 0.00
5:15 pm 17:15 Sunny 78 25.6 58 14.7 51 51 Calm 29.91 1013 10 16 0.00 0.00
5:35 pm 17:35 Sunny 78 25.8 61 16.1 55 55 N 7 11 29.91 1013 10 16 0.00 0.00
5:55 pm 17:55 Sunny 78 25.8 60 15.5 53 53 NNW 7 11 29.91 1013 10 16 0.00 0.00
6:15 pm 18:15 Sunny 78 25.5 60 15.5 54 54 NNW 6 9 29.91 1013 10 16 0.00 0.00
6:35 pm 18:35 Sunny 78 25.3 60 15.4 54 54 N 5 7 29.91 1013 10 16 0.00 0.00
6:55 pm 18:55 Sunny 77 25.1 60 15.6 56 56 N 5 7 29.91 1013 10 16 0.00 0.00
7:15 pm 19:15 Sunny 77 25 59 14.8 53 53 NNW 7 11 29.91 1013 10 16 0.00 0.00
7:35 pm 19:35 Sunny 76 24.4 60 15.5 58 58 N 7 11 29.91 1013 10 16 0.00 0.00
7:55 pm 19:55 Sunny 74 23.5 60 15.8 62 62 NNE 8 13 29.91 1013 10 16 0.00 0.00
8:15 pm 20:15 Sunny 73 22.5 61 16.3 68 68 N 5 7 29.93 1013 10 16 0.00 0.00
8:35 pm 20:35 Sunny 70 21.1 63 17.2 79 79 NNE 5 7 29.93 1014 10 16 0.00 0.00
8:55 pm 20:55 Clear 69 20.3 63 17.4 84 84 NNE 3 6 29.94 1014 10 16 0.00 0.00
9:15 pm 21:15 Clear 67 19.6 65 18.4 93 93 Calm 29.94 1014 10 16 0.00 0.00
9:35 pm 21:35 Clear 66 19 65 18.2 95 95 Calm 29.94 1014 10 16 0.00 0.00
9:55 pm 21:55 Clear 64 18 64 18 100 100 Calm 29.95 1014 10 16 0.00 0.00
10:15 pm 22:15 Clear 64 17.8 64 17.8 100 100 NE 3 6 29.96 1015 10 16 0.00 0.00
10:35 pm 22:35 Clear 65 18.2 62 16.5 90 90 NE 5 7 29.97 1015 10 16 0.00 0.00
10:55 pm 22:55 Clear 65 18.2 59 15.2 83 83 ENE 3 6 29.97 1015 10 16 0.00 0.00
11:15 pm 23:15 Clear 64 17.8 59 15 84 84 Calm 29.97 1015 10 16 0.00 0.00
11:35 pm 23:35 Clear 62 16.8 62 16.4 98 98 Calm 29.98 1015 10 16 0.00 0.00
11:55 pm 23:55 Clear 62 16.5 61 15.9 96 96 Calm 29.98 1015 10 16 0.00 0.00

Powered by AerisWeather